Content
SEND FEEDBACK

Daily
Averages
Monthly
Summary
United States of America

STERLING, KANSAS


Home > North America > United States > Kansas
Elevation: 1640 feet     Latitude: 38 13N     Longitude: 098 12W

WEATHER
 
SELECT A DAY
Number of Records: 192,708;   Date Range: 1/1/95 - 11/24/14
 
SHARE

PRINT THIS DATA

[ ← Previous Day ]
WEATHER ALMANAC - FEBRUARY 13, 2013
[ Next Day → ]
[ °C ]   °F
Weather ElementAverageHighLow
Temperature40.5 °F57.9 °F (3:52 pm)23 °F (2:52 am)
Dewpoint19.8 °F24.1 °F (1:52 am)16 °F (4:52 pm)
Humidity50.3 %92 % (2:52 am)19 % (4:52 pm)
Barometer29.94 in30.00 in (1:52 am)29.87 in (3:52 pm)
Wind Speed10.6 mph18.4 mph (1:52 pm)
Wind Gust25.3 mph (2:52 pm)
Weather ElementAverage
Visibility10 mi
Wind DirectionWNW (278.3 °)

Weather ElementTotal
Precipitation---
Heating Degree Days24.6 (Base 65)
Averaged from 23 records on February 13, 2013
WEATHER CONDITIONS BREAKOUT
WIND DIRECTION BREAKOUT
WEATHER BY HOUR - FEBRUARY 13, 2013
[ °C ]   °F
Local TimeTemperatureDewpointHumidityBarometerVisibilityWind DirectionWind SpeedGust SpeedPrecipitationEventsConditions
1:52 AM27.0 °F24.1 °F89 %30.00 in10.0 miWNW (290°)6.9 mphClear
2:52 AM23.0 °F21.0 °F92 %29.99 in9.0 miNW (310°)6.9 mphClear
3:52 AM25.0 °F21.0 °F85 %29.99 in10.0 miNW (310°)6.9 mphClear
4:52 AM25.0 °F19.0 °F78 %29.99 in10.0 miNW (310°)11.5 mphClear
5:52 AM24.1 °F18.0 °F77 %29.99 in10.0 miWNW (290°)5.8 mphClear
6:52 AM23.0 °F17.1 °F78 %29.99 in10.0 miWest (280°)4.6 mphClear
7:52 AM25.0 °F18.0 °F75 %29.99 in10.0 miWest (280°)6.9 mphClear
8:52 AM30.0 °F21.0 °F69 %30.00 in10.0 miWest (280°)11.5 mphClear
9:52 AM37.9 °F23.0 °F55 %29.99 in10.0 miWNW (290°)16.1 mphClear
10:52 AM43.0 °F23.0 °F45 %29.99 in10.0 miWNW (290°)10.4 mphClear
11:52 AM51.1 °F21.0 °F31 %29.96 in10.0 miWNW (290°)15.0 mphClear
12:52 PM54.0 °F19.0 °F25 %29.94 in10.0 miWest (270°)12.7 mph19.6 mphClear
1:52 PM55.9 °F18.0 °F23 %29.91 in10.0 miWest (270°)18.4 mph23.0 mphClear
2:52 PM57.0 °F19.0 °F23 %29.89 in10.0 miWest (270°)17.3 mph25.3 mphClear
3:52 PM57.9 °F19.9 °F23 %29.87 in10.0 miWest (270°)17.3 mph23.0 mphClear
4:52 PM57.9 °F16.0 °F19 %29.87 in10.0 miWest (280°)15.0 mph23.0 mphClear
5:52 PM54.0 °F16.0 °F22 %29.87 in10.0 miWest (260°)12.7 mphClear
6:52 PM50.0 °F17.1 °F27 %29.88 in10.0 miWSW (240°)5.8 mphClear
7:52 PM48.0 °F16.0 °F28 %29.89 in10.0 miWSW (240°)8.1 mphClear
8:52 PM45.0 °F21.9 °F40 %29.90 in10.0 miWest (260°)10.4 mphClear
9:52 PM44.1 °F21.9 °F42 %29.90 in10.0 miWSW (250°)10.4 mph17.3 mphClear
10:52 PM39.0 °F23.0 °F53 %29.91 in10.0 miWest (280°)6.9 mphClear
11:52 PM35.1 °F21.9 °F59 %29.92 in10.0 miWNW (290°)6.9 mphClear
Hourly data recorded from KHUT, located miles away from Sterling, Kansas







STORIES FROM OUR PARTNERS